Regional Weather Roundup
Issued by NWS

Home | Current Version | Previous Version | Text Only | Print | Product List | Glossary On
Versions: 1 2 3 4 5 6 7 8 9 10 11 12 13 14 15 16 17 18 19 20 21 22 23 24 25 26 27 28 29 30 31 32 33 34 35 36 37 38 39 40 41 42 43 44 45 46 47 48 49 50
000
ASUS43 KFSD 261410
RWRSD

WEATHER ROUNDUP FOR SOUTH DAKOTA
NATIONAL WEATHER SERVICE SIOUX FALLS SD
900 AM CDT SAT MAY 26 2018

NOTE: "FAIR" INDICATES FEW OR NO CLOUDS BELOW 12,000 FEET WITH NO
SIGNIFICANT WEATHER AND/OR OBSTRUCTIONS TO VISIBILITY.


SDZ001>005-009-010-012>017-261500-
NORTHWEST AND NORTH CENTRAL SOUTH DAKOTA

CITY           SKY/WX    TMP DP  RH WIND       PRES   REMARKS
BUFFALO          N/A     68  53  58 SE5       29.78R
FAITH            N/A     72  60  66 S7        29.83F
MOBRIDGE       SUNNY     69  57  65 S3        29.78S
$$

SDZ012>016-024>037-041>051-057-063-072>074-261500-
SOUTHWEST AND SOUTH CENTRAL SOUTH DAKOTA

CITY           SKY/WX    TMP DP  RH WIND       PRES   REMARKS
RAPID CTY ARPT SUNNY     67  58  72 SE5       29.86S
PIERRE         SUNNY     70  62  76 W6        29.81R
CUSTER         SUNNY     68  52  56 CALM      29.99F
ELLSWORTH AFB  SUNNY     69  60  74 S6        29.85S
PHILIP         SUNNY     69  62  78 CALM      29.83S
PINE RIDGE     SUNNY     73  59  61 NW5       29.87F
SPEARFISH      FAIR      72  52  49 CALM      29.87F
WINNER         FAIR      76  61  59 CALM      29.84S
$$

SDZ004>011-016>023-039-040-261500-
NORTHEAST SOUTH DAKOTA

CITY           SKY/WX    TMP DP  RH WIND       PRES   REMARKS
ABERDEEN       SUNNY     77  57  50 SW3       29.77S
WATERTOWN      SUNNY     72  60  66 W6        29.78R
BROOKINGS      SUNNY     75  60  59 CALM      29.80R
SISSETON         N/A     84  54  35 NW8       29.72S
$$

SDZ017-020-022-023-036>040-048>070-261500-
SOUTHEAST SOUTH DAKOTA

CITY           SKY/WX    TMP DP  RH WIND       PRES   REMARKS
SIOUX FALLS    SUNNY     76  66  71 CALM      29.80R
HURON          SUNNY     75  59  57 CALM      29.79S
CHAMBERLAIN    SUNNY     77  63  61 W6        29.83S
MITCHELL       SUNNY     75  63  66 CALM      29.81R
YANKTON        SUNNY     75  65  70 SW3       29.82R
$$

ABBREVIATIONS USED IN REMARKS
   TC - TEMPERATURE IN CELSIUS
  WCI - WIND CHILL INDEX
   HX - HEAT INDEX
  VSB - VISIBILITY




USA.gov is the U.S. government's official web portal to all federal, state and local government web resources and services.